Location: Unspecified
(48.2082°N, 0.0000°E)
Time: 17:45:16
(UTC+00:00)

Altair - Pass Details

Date: 20 June 2019
Orbit: 1501 x 1683 km, 47.2° (Epoch: 17 July)

Event Time Altitude Azimuth Distance (km) Brightness Sun altitude
Rises 23:23:35 0° 271° (W) 4,786 10.2 -17.8°
Reaches altitude 10° 23:26:38 10° 271° (W) 3,824 9.7 -17.9°
Maximum altitude 23:36:29 85° 185° (S) 1,659 7.6 -18.1°
Drops below altitude 10° 23:46:38 10° 99° (E) 3,937 9.5 -18.3°
Sets 23:49:49 0° 99° (E) 4,931 10.0 -18.3°
